"Pseudo-MPEC" for P115zsV

Created 2020 Sep 19 22:07:20 UT using Find_Orb

Click here for an explanation of pseudo-MPECs

 
 Astrometry: 
     P115zsV  C2020 09 12LMo3[JuPhU0CfH.vqr0D-mw1c-fjV'p*w)?!XpCgZ@S))PT!:0GWF51
     P115zsV  C2020 09 12w3AstrometryA^redacted;y1:clickZ'xWe2whVeHvr+%_[p['2F51
     P115zsV  C2020 09 12QHp*30do/v4'.1hereoPq;I#tKUforBfj`nVkLexplanationu*7F51

Station data:
(F51) Pan-STARRS 1, Haleakala  (N20.707235 W156.255910)  US/Hawaii.
   Observers N. Primak, A. Schultz, S. Watters, J. Thiel, T. Goggia. Measurer
   PS1 Science Consortium. 1.8-m Ritchey-Chrétien + CCD.

Orbital elements:  P115zsV
   Perihelion 2020 Oct 18.950461 +/- 55 TT = 22:48:39 (JD 2459141.450461)
Epoch 2020 Sep 12.0 TT = JDT 2459104.5   Earth MOID: 0.5449   AutoNEOCP
M 351.57955183 +/- 15               (J2000 ecliptic)
n   0.22788479 +/- 0.223            Peri.  261.63744 +/- 80
a   2.65455964 +/- 1.73             Node   110.98474 +/- 43
e   0.4292073 +/- 0.243             Incl.    8.44956 +/- 4.9
P   4.33                   H 21.8   G  0.15   U 11.7  SR
q 1.51520301 +/- 0.567    Q 3.79391627 +/- 137
From 3 observations 2020 Sept. 12 (29.7 min); mean residual 0".08
Residuals in arcseconds: 
200912 F51  .06-  .05-    200912 F51  .12+  .10+    200912 F51  .06-  .05-    

Ephemerides (geocentric):
Date (UTC) HH   RA              Dec         delta   r     elong  mag " sig PA
---- -- -- --  -------------   -----------  ------ ------ -----  --- ---- ---
2020 09 19 22  23 53 30.766   -23 47 39.95  .56198 1.5382 157.3 22.3  32d 171
2020 09 19 23  23 53 30.504   -23 47 58.27  .56197 1.5381 157.3 22.3  32d 171
2020 09 20 00  23 53 30.241   -23 48 16.54  .56197 1.5381 157.3 22.3  32d 171
2020 09 20 01  23 53 29.978   -23 48 34.76  .56196 1.5380 157.3 22.3  32d 171
2020 09 20 02  23 53 29.715   -23 48 52.93  .56196 1.5380 157.2 22.3  32d 171
2020 09 20 03  23 53 29.452   -23 49 11.04  .56195 1.5379 157.2 22.3  32d 171
2020 09 20 04  23 53 29.189   -23 49 29.10  .56195 1.5378 157.2 22.3  32d 171
2020 09 20 05  23 53 28.926   -23 49 47.11  .56195 1.5378 157.2 22.3  32d   0
2020 09 20 06  23 53 28.663   -23 50 05.07  .56194 1.5377 157.2 22.3  32d   0
2020 09 20 07  23 53 28.399   -23 50 22.97  .56194 1.5376 157.1 22.3  32d   0
2020 09 20 08  23 53 28.136   -23 50 40.82  .56194 1.5376 157.1 22.3  32d   0
2020 09 20 09  23 53 27.872   -23 50 58.62  .56193 1.5375 157.1 22.3  32d   0
2020 09 20 10  23 53 27.609   -23 51 16.36  .56193 1.5374 157.1 22.3  32d   0
2020 09 20 11  23 53 27.345   -23 51 34.05  .56193 1.5374 157.1 22.3  32d   0
2020 09 20 12  23 53 27.081   -23 51 51.69  .56193 1.5373 157.0 22.3  32d   0
2020 09 20 13  23 53 26.818   -23 52 09.28  .56193 1.5372 157.0 22.3  32d   0
2020 09 20 14  23 53 26.554   -23 52 26.81  .56193 1.5372 157.0 22.3  32d   0
2020 09 20 15  23 53 26.290   -23 52 44.29  .56193 1.5371 157.0 22.3  32d   0
2020 09 20 16  23 53 26.026   -23 53 01.71  .56192 1.5371 157.0 22.3  32d   0
2020 09 20 17  23 53 25.762   -23 53 19.09  .56192 1.5370 156.9 22.3  32d   0
2020 09 20 18  23 53 25.498   -23 53 36.40  .56192 1.5369 156.9 22.3  32d   0
2020 09 20 19  23 53 25.234   -23 53 53.67  .56192 1.5369 156.9 22.3  32d   0
2020 09 20 20  23 53 24.970   -23 54 10.88  .56192 1.5368 156.9 22.3  32d   0
2020 09 20 21  23 53 24.706   -23 54 28.04  .56193 1.5367 156.9 22.3  32d   0
2020 09 20 22  23 53 24.443   -23 54 45.14  .56193 1.5367 156.8 22.3  32d   0
2020 09 20 23  23 53 24.179   -23 55 02.20  .56193 1.5366 156.8 22.3  32d   0
2020 09 21 00  23 53 23.915   -23 55 19.19  .56193 1.5365 156.8 22.3  32d   0
2020 09 21 01  23 53 23.651   -23 55 36.14  .56193 1.5365 156.8 22.3  32d   0
2020 09 21 02  23 53 23.387   -23 55 53.02  .56193 1.5364 156.8 22.3  32d   0
2020 09 21 03  23 53 23.124   -23 56 09.86  .56194 1.5364 156.7 22.3  32d   0
2020 09 21 04  23 53 22.860   -23 56 26.64  .56194 1.5363 156.7 22.3  32d   0
2020 09 21 05  23 53 22.597   -23 56 43.37  .56194 1.5362 156.7 22.3  32d   0
2020 09 21 06  23 53 22.333   -23 57 00.04  .56194 1.5362 156.7 22.3  32d   0
2020 09 21 07  23 53 22.070   -23 57 16.66  .56195 1.5361 156.6 22.3  32d   0
2020 09 21 08  23 53 21.807   -23 57 33.23  .56195 1.5360 156.6 22.3  32d   0
2020 09 21 09  23 53 21.543   -23 57 49.74  .56195 1.5360 156.6 22.3  32d   0
2020 09 21 10  23 53 21.280   -23 58 06.19  .56196 1.5359 156.6 22.3  32d   0
2020 09 21 11  23 53 21.017   -23 58 22.59  .56196 1.5359 156.6 22.3  32d   0
2020 09 21 12  23 53 20.755   -23 58 38.94  .56197 1.5358 156.5 22.3  32d   0
2020 09 21 13  23 53 20.492   -23 58 55.23  .56197 1.5357 156.5 22.3  32d   0
2020 09 21 14  23 53 20.229   -23 59 11.47  .56198 1.5357 156.5 22.3  32d   0
2020 09 21 15  23 53 19.967   -23 59 27.65  .56198 1.5356 156.5 22.3  32d   0
2020 09 21 16  23 53 19.705   -23 59 43.78  .56199 1.5356 156.5 22.3  32d   0
2020 09 21 17  23 53 19.443   -23 59 59.86  .56200 1.5355 156.4 22.3  32d   0
2020 09 21 18  23 53 19.181   -24 00 15.88  .56200 1.5354 156.4 22.3  32d   0
2020 09 21 19  23 53 18.919   -24 00 31.84  .56201 1.5354 156.4 22.3  32d   0
2020 09 21 20  23 53 18.657   -24 00 47.75  .56202 1.5353 156.4 22.3  32d   0
2020 09 21 21  23 53 18.396   -24 01 03.60  .56202 1.5352 156.3 22.3  32d   0